Regional Weather Roundup
Issued by NWS Burlington, VT

Home | Current Version | Previous Version | Text Only | Print | Product List | Glossary On
Versions: 1 2 3 4 5 6 7 8 9 10 11 12 13 14 15 16 17 18 19 20 21 22 23 24 25 26 27 28 29 30 31 32 33 34 35 36 37 38 39 40 41 42 43 44 45 46 47 48 49 50
000
ASUS41 KBTV 290330
RWRBTV
VERMONT REGIONAL WEATHER ROUNDUP
NATIONAL WEATHER SERVICE BURLINGTON VT
1000 PM EST FRI NOV 28 2014

NOTE: "FAIR" INDICATES FEW OR NO CLOUDS BELOW 12,000 FEET WITH NO
SIGNIFICANT WEATHER AND/OR OBSTRUCTIONS TO VISIBILITY.

* THESE REPORTS ARE NOT UNDER NWS QUALITY CONTROL AND/OR DO NOT
  REPORT WEATHER SUCH AS PRECIPITATION AND FOG.

VTZ001>019-290400-
_____VERMONT_____


CITY           SKY/WX    TMP DP  RH WIND       PRES   REMARKS
BURLINGTON     MOCLDY    21  12  68 NW6       30.20R
MONTPELIER     CLOUDY    19  13  77 NW12      30.16R WCI   7
MORRISVILLE    FLURRIES  20  12  71 N6        30.17R
ST. JOHNSBURY*   N/A     18  15  88 MISG      30.14R
LYNDONVILLE*   FLURRIES  16  11  81 CALM      30.13R
MIDDLEBURY*    FAIR      15  13  93 CALM      30.19R
RUTLAND*       CLEAR     16  10  79 CALM      30.17R
HIGHGATE*      FAIR      19  12  74 CALM      30.20R
NEWPORT*       FLURRIES  18  14  84 CALM      30.15R
BENNINGTON     CLOUDY    22  16  78 W6        30.18R
SUTTON*          N/A     14 N/A N/A MISG        N/A
GALLUP MILLS*    N/A     12 N/A N/A MISG        N/A
UNION VILLAGE*   N/A     14 N/A N/A MISG        N/A
MT. MANSFIELD*   N/A      7 N/A N/A NW28        N/A  WCI -16

_____LAKE CHAMPLAIN_____


CITY           SKY/WX    TMP DP  RH WIND       PRES   REMARKS
BURTON ISLAND*   N/A     27  18  69 W12         N/A  WCI  16
COLCHESTER RF*   N/A     27  18  69 NW10        N/A  WCI  17
DIAMOND ISL*     N/A     27  18  69 W3          N/A

$$

NYZ007-026>031-035-052-083-290400-
_____NORTHERN NEW YORK_____


CITY           SKY/WX    TMP DP  RH WIND       PRES   REMARKS
PLATTSBURGH    CLEAR     15  11  83 CALM      30.20R
SARANAC LAKE   CLOUDY     4 N/A N/A SW5       30.08S
MASSENA        PTCLDY    17  13  84 CALM      30.21S
OGDENSBURG*    PTCLDY    25  16  68 W5        30.19S
POTSDAM*       MOCLDY    19  16  86 SW3       30.18S
STARK FALLS*     N/A     18 N/A N/A SW2         N/A
WATERTOWN      CLOUDY    24  12  60 CALM      30.21R
FT DRUM        CLOUDY    20  11  70 W1        30.18R
ALBANY         PTCLDY    22  11  62 W9        30.23R
GLENS FALLS    CLEAR     12   9  87 CALM      30.22R

$$
NHZ002-005-011-290400-
_____NEW HAMPSHIRE_____


CITY           SKY/WX    TMP DP  RH WIND       PRES   REMARKS
LEBANON        CLEAR     12   8  84 CALM      30.16R
KEENE          PTCLDY    19  18  93 CALM      30.18R
MT WASHINGTON  SNOWSHWR  -4  -4 100 NW33G39     N/A  VSB 1/16WCI -32
PLYMOUTH       FLURRIES  19  17  93 CALM      30.16R
WHITEFIELD     CLOUDY    18  14  84 N5        30.12R

$$

_____REGIONAL QUEBEC LOCATIONS_____


CITY           SKY/WX    TMP DP  RH WIND       PRES   REMARKS
MONTREAL       PTCLDY    19   9  63 W2        30.20R
QUEBEC CITY    CLEAR     16   7  67 NW5       30.13R
SHERBROOKE     FLURRIES  18  16  93 W5        30.11S

_____REGIONAL ONTARIO LOCATIONS_____


CITY           SKY/WX    TMP DP  RH WIND       PRES   REMARKS
OTTAWA         MOCLDY    16  12  86 CALM      30.17F

______KEY______
VSB  - VISIBILITY IN MILES
WCI  - WIND CHILL INDEX
HX   - HEAT INDEX
$$



USA.gov is the U.S. government's official web portal to all federal, state and local government web resources and services.